Skip Page Navigation
NASA JPL Caltech
NASA Logo - Jet Propulsion Laboratory + View the NASA Portal
+ Center for Near-Earth Object Studies
JPL Home Earth Solar System Stars & Galaxies Technology
JPL Solar System Dynamics
BODIES ORBITS EPHEMERIDES TOOLS PHYSICAL DATA DISCOVERY FAQ SITE MAP
IMPORTANT: The SSD Announcement email list is now available. Major changes are coming in the near future, including possible hostname and/or URL changes. To be notified of such changes, subscribe to this email list.

Please visit this page for more details.


JPL Small-Body Database Browser
Search: [ help ]  
305521 (2008 FV19)
Classification: Main-belt Asteroid          SPK-ID: 2305521
Ephemeris | Orbit Diagram | Orbital Elements | Mission Design | Physical Parameters | Discovery Circumstances | Close-Approach Data ]

[ show orbit diagram ]
Orbital Elements at Epoch 2458600.5 (2019-Apr-27.0) TDB
Reference: JPL 5 (heliocentric ecliptic J2000)
 Element Value Uncertainty (1-sigma)   Units 
e .1711377524866299 6.1053e-08  
a 3.123805136341826 4.0208e-08 au
q 2.589204146102095 1.9217e-07 au
i 1.056405760368056 8.3798e-06 deg
node 22.74914957022694 0.0004888 deg
peri 31.88610943723468 0.00048993 deg
M 106.6238284726042 3.1894e-05 deg
tp 2458003.222574650060
(2017-Sep-06.72257465)
0.00017443 TDB
period 2016.621201903525
5.52
3.8935e-05
1.066e-07
d
yr
n .178516421259575 3.4466e-09 deg/d
Q 3.658406126581557 4.7089e-08 au
  Orbit Determination Parameters
   # obs. used (total)      128  
   data-arc span      6753 days (18.49 yr)  
   first obs. used      2000-10-06  
   last obs. used      2019-04-03  
   planetary ephem.      DE431  
   SB-pert. ephem.      SB431-N16  
   condition code      0  
   norm. resid. RMS      .64852  
   source      ORB  
   producer      Otto Matic  
   solution date      2019-Jul-14 10:45:33  

Additional Information
 Earth MOID = 1.60038 au 
 Jupiter MOID = 1.7055 au 
 T_jup = 3.192 
[ show covariance matrix ]

Ephemeris | Orbit Diagram | Orbital Elements | Mission Design | Physical Parameters | Discovery Circumstances | Close-Approach Data ]

Physical Parameter Table
Parameter Symbol Value Units Sigma Reference Notes
absolute magnitude H 16.4   n/a MPO391593  

305521 (2008 FV19)          Discovered 2008-Mar-27 by Mt. Lemmon Survey at Mount Lemmon
Reference: 20111110/Numbers.arcLast Updated: 2011-11-14

[ show close-approach data ]
Alternate Designations
 2008 FV19 = 2006 XT32 
Ephemeris | Orbit Diagram | Orbital Elements | Mission Design | Physical Parameters | Discovery Circumstances | Close-Approach Data ]
ABOUT SSD CREDITS/AWARDS PRIVACY/COPYRIGHT GLOSSARY LINKS
FirstGov
(server date/time)  
NASA Home Page
Site Manager:   Ryan S. Park
Webmaster  Alan B. Chamberlin